EZY522 EVRA-EGKK

Flight info

Callsign EZY522
Flight time N/A
Altitude 38000
Route VALED DCT ADAXA DCT NINTA DCT GIMRU DCT GALSO Q63 ARREK Y4 TEBRA
Aircraft A20N/M-SDE2E3FGHIRWXY/LB1

Departure

Time 2026-04-30 18:47
Airport Riga International Airport (EVRA)

Arrival

Time N/A
Airport London Gatwick Airport (EGKK)
Time Latitude Longitude Altitude Speed Heading
2026-04-30 18:21 56.92278 23.97675 43 ft 0 kts 184°
2026-04-30 18:38 56.92279 23.97675 43 ft 2 kts 184°
2026-04-30 18:38 56.92295 23.97677 40 ft 2 kts 184°
2026-04-30 18:39 56.92311 23.97679 40 ft 2 kts 187°
2026-04-30 18:39 56.92326 23.97688 41 ft 2 kts 229°
2026-04-30 18:39 56.92335 23.97713 40 ft 2 kts 255°
2026-04-30 18:39 56.92337 23.97743 42 ft 2 kts 268°
2026-04-30 18:40 56.92338 23.97769 41 ft 1 kts 266°
2026-04-30 18:40 56.92338 23.97770 40 ft 0 kts 266°
2026-04-30 18:45 56.91247 23.97325 43 ft 45 kts 186°
2026-04-30 18:45 56.90934 23.97273 45 ft 45 kts 184°
2026-04-30 18:45 56.90701 23.97169 44 ft 27 kts 225°
2026-04-30 18:46 56.90663 23.96872 44 ft 23 kts 313°
2026-04-30 18:46 56.90793 23.96855 43 ft 20 kts
2026-04-30 18:46 56.91093 23.96903 45 ft 77 kts
2026-04-30 18:46 56.91840 23.97022 43 ft 135 kts
2026-04-30 18:47 56.92907 23.97215 266 ft 160 kts
2026-04-30 18:47 56.93993 23.97514 1031 ft 157 kts
2026-04-30 18:47 56.95107 23.97740 1622 ft 168 kts
2026-04-30 18:47 56.96337 23.97862 2069 ft 186 kts
2026-04-30 18:48 56.97697 23.98003 2419 ft 208 kts
2026-04-30 18:48 56.99215 23.98207 2839 ft 230 kts
2026-04-30 18:48 57.00865 23.98467 3502 ft 243 kts
2026-04-30 18:48 57.02442 23.98734 4513 ft 242 kts
2026-04-30 18:49 57.03545 23.98932 5339 ft 239 kts
2026-04-30 18:49 57.05216 23.98975 6400 ft 243 kts 350°
2026-04-30 18:49 57.07208 23.97058 7675 ft 255 kts 318°
2026-04-30 18:49 57.08193 23.94219 8624 ft 267 kts 301°
2026-04-30 18:50 57.08720 23.92148 9157 ft 277 kts 301°
2026-04-30 18:50 57.09588 23.88745 9335 ft 310 kts 300°
2026-04-30 18:50 57.10813 23.83616 9536 ft 354 kts 291°
2026-04-30 18:50 57.11119 23.78908 9694 ft 390 kts 272°
2026-04-30 18:51 57.10625 23.73843 10120 ft 412 kts 258°
2026-04-30 18:51 57.10031 23.70407 10408 ft 424 kts 254°
2026-04-30 18:51 57.08719 23.65338 10458 ft 448 kts 243°
2026-04-30 18:51 57.07192 23.60486 11718 ft 430 kts 243°
2026-04-30 18:52 57.05714 23.55886 11854 ft 406 kts 243°
2026-04-30 18:52 57.04295 23.51564 11833 ft 385 kts 242°
2026-04-30 18:52 57.02727 23.47689 11939 ft 375 kts 226°
2026-04-30 18:52 57.00697 23.44806 12064 ft 375 kts 214°
2026-04-30 18:53 56.98431 23.42393 12480 ft 379 kts 210°
2026-04-30 18:53 56.96098 23.40118 13367 ft 381 kts 210°
2026-04-30 18:53 56.93745 23.37823 14164 ft 385 kts 210°
2026-04-30 18:53 56.91373 23.35461 14810 ft 392 kts 211°
2026-04-30 18:54 56.88969 23.33028 15456 ft 397 kts 211°
2026-04-30 18:54 56.86541 23.30549 16097 ft 403 kts 211°
2026-04-30 18:54 56.84072 23.28022 16734 ft 410 kts 211°
2026-04-30 18:54 56.81573 23.25453 17360 ft 414 kts 213°
2026-04-30 18:55 56.79337 23.22163 17976 ft 414 kts 231°
2026-04-30 18:55 56.76861 23.12981 19125 ft 402 kts 267°
2026-04-30 18:55 56.76552 23.07949 19743 ft 399 kts 273°
2026-04-30 18:56 56.76058 22.97766 20913 ft 408 kts 271°
2026-04-30 18:56 56.75691 22.92596 21487 ft 413 kts 269°
2026-04-30 18:56 56.75263 22.87392 22076 ft 418 kts 268°
2026-04-30 18:57 56.74364 22.76849 23200 ft 424 kts 269°
2026-04-30 18:57 56.73953 22.71508 23731 ft 428 kts 270°
2026-04-30 18:57 56.73542 22.66129 24233 ft 431 kts 270°
2026-04-30 18:58 56.72693 22.55240 25146 ft 437 kts 270°
2026-04-30 18:58 56.72257 22.49743 25596 ft 440 kts 269°
2026-04-30 18:58 56.71809 22.44207 26024 ft 444 kts 269°
2026-04-30 18:59 56.70661 22.33038 26870 ft 453 kts 266°
2026-04-30 19:00 56.68829 22.16030 28092 ft 461 kts 267°
2026-04-30 19:00 56.68220 22.10289 28473 ft 463 kts 267°
2026-04-30 19:00 56.66989 21.98722 29201 ft 469 kts 266°
2026-04-30 19:01 56.65733 21.87034 29910 ft 473 kts 266°
2026-04-30 19:01 56.65098 21.81158 30258 ft 476 kts 266°
2026-04-30 19:02 56.63805 21.69304 30875 ft 480 kts 266°
2026-04-30 19:02 56.62491 21.57364 31495 ft 484 kts 266°
2026-04-30 19:03 56.61161 21.45398 32256 ft 483 kts 266°
2026-04-30 19:03 56.59824 21.33471 33025 ft 482 kts 265°
2026-04-30 19:04 56.58488 21.21654 33757 ft 480 kts 265°
2026-04-30 19:04 56.57135 21.09802 34440 ft 479 kts 265°
2026-04-30 19:05 56.55775 20.97993 35010 ft 478 kts 265°
2026-04-30 19:05 56.54409 20.86231 35569 ft 476 kts 265°
2026-04-30 19:06 56.53037 20.74518 36117 ft 474 kts 265°
2026-04-30 19:06 56.52348 20.68680 36363 ft 474 kts 265°
2026-04-30 19:06 56.50965 20.57037 36845 ft 472 kts 264°
2026-04-30 19:07 56.49575 20.45425 37297 ft 471 kts 264°
2026-04-30 19:07 56.48876 20.39630 37504 ft 471 kts 264°
2026-04-30 19:08 56.47474 20.28070 37910 ft 470 kts 264°
2026-04-30 19:08 56.46061 20.16524 38277 ft 470 kts 264°
2026-04-30 19:09 56.43929 19.99278 38351 ft 468 kts 264°
2026-04-30 19:09 56.42497 19.87807 38354 ft 468 kts 263°
2026-04-30 19:10 56.39603 19.64914 38355 ft 467 kts 263°
2026-04-30 19:11 56.37417 19.47864 38356 ft 467 kts 263°
2026-04-30 19:12 56.35941 19.36464 38353 ft 466 kts 263°
2026-04-30 19:12 56.34456 19.25085 38365 ft 466 kts 263°
2026-04-30 19:13 56.31458 19.02376 38364 ft 465 kts 262°
2026-04-30 19:14 56.29952 18.91058 38366 ft 465 kts 262°
2026-04-30 19:14 56.28619 18.79943 38351 ft 462 kts 265°
2026-04-30 19:15 56.27408 18.68635 38358 ft 460 kts 265°
2026-04-30 19:15 56.25526 18.51693 38358 ft 460 kts 264°
2026-04-30 19:16 56.24244 18.40426 38357 ft 460 kts 264°
2026-04-30 19:17 56.21912 18.23669 38366 ft 466 kts 255°
2026-04-30 19:17 56.18543 18.07302 38366 ft 466 kts 255°
2026-04-30 19:18 56.15204 17.90940 38370 ft 465 kts 255°
2026-04-30 19:19 56.12968 17.80055 38373 ft 465 kts 255°
2026-04-30 19:19 56.09585 17.63757 38371 ft 465 kts 255°
2026-04-30 19:20 56.07318 17.52911 38367 ft 465 kts 254°
2026-04-30 19:21 56.03903 17.36686 38370 ft 464 kts 254°
2026-04-30 19:22 55.99321 17.15117 38366 ft 464 kts 254°
2026-04-30 19:23 55.92405 16.82984 38366 ft 463 kts 253°
2026-04-30 19:24 55.88912 16.66948 38362 ft 462 kts 253°
2026-04-30 19:25 55.83052 16.40311 38354 ft 462 kts 253°
2026-04-30 19:26 55.78322 16.19059 38358 ft 462 kts 252°
2026-04-30 19:27 55.74752 16.03161 38358 ft 462 kts 252°
2026-04-30 19:28 55.71163 15.87302 38375 ft 462 kts 252°
2026-04-30 19:29 55.66369 15.66301 38345 ft 458 kts 252°
2026-04-30 19:30 55.61563 15.45445 38355 ft 457 kts 252°
2026-04-30 19:31 55.56732 15.24690 38354 ft 456 kts 251°
2026-04-30 19:31 55.53095 15.09198 38354 ft 455 kts 251°
2026-04-30 19:32 55.50661 14.98892 38356 ft 455 kts 251°
2026-04-30 19:32 55.48238 14.88680 38360 ft 454 kts 251°
2026-04-30 19:33 55.45790 14.78411 38364 ft 454 kts 251°
2026-04-30 19:33 55.43336 14.68167 38366 ft 454 kts 251°
2026-04-30 19:34 55.40874 14.57941 38372 ft 454 kts 250°
2026-04-30 19:35 55.37166 14.42624 38381 ft 453 kts 250°
2026-04-30 19:35 55.34686 14.32441 38386 ft 453 kts 250°
2026-04-30 19:36 55.32199 14.22274 38388 ft 453 kts 250°
2026-04-30 19:36 55.28454 14.07056 38396 ft 452 kts 250°
2026-04-30 19:37 55.25949 13.96934 38398 ft 452 kts 250°
2026-04-30 19:37 55.23862 13.88539 38400 ft 452 kts 250°
2026-04-30 19:38 55.20936 13.76820 38402 ft 452 kts 249°
2026-04-30 19:38 55.18411 13.66757 38400 ft 451 kts 249°
2026-04-30 19:39 55.15881 13.56718 38405 ft 451 kts 249°
2026-04-30 19:39 55.13756 13.48321 38409 ft 451 kts 249°
2026-04-30 19:40 55.11210 13.38307 38406 ft 451 kts 249°
2026-04-30 19:40 55.08677 13.28384 38413 ft 450 kts 249°
2026-04-30 19:41 55.06120 13.18412 38414 ft 450 kts 249°
2026-04-30 19:41 55.03553 13.08446 38415 ft 450 kts 248°
2026-04-30 19:42 55.00981 12.98508 38417 ft 450 kts 248°
2026-04-30 19:42 54.98403 12.88586 38423 ft 450 kts 248°
2026-04-30 19:43 54.95818 12.78683 38421 ft 449 kts 248°
2026-04-30 19:44 54.91927 12.63857 38422 ft 449 kts 248°